TimeAEST,TemperatureF,Dew PointF,Humidity,Sea Level PressureIn,VisibilityMPH,Wind Direction,Wind SpeedMPH,Gust SpeedMPH,PrecipitationIn,Events,Conditions,WindDirDegrees,DateUTC
12:00 AM,72,66,76,30.03,,SE,6.9,,,,Overcast,140,2012-10-06 14:00:00
12:00 AM,71.6,66.2,83,30.01,6.2,SE,6.9,-,N/A,,Overcast,140,2012-10-06 14:00:00
12:30 AM,71.6,68.0,88,30.01,6.2,SSE,6.9,-,N/A,,Mostly Cloudy,150,2012-10-06 14:30:00
1:00 AM,73,64,67,30.02,,South,6.9,,,,,190,2012-10-06 15:00:00
1:00 AM,73.4,64.4,73,30.01,6.2,South,6.9,-,N/A,,Overcast,190,2012-10-06 15:00:00
1:30 AM,71.6,66.2,83,29.98,6.2,SSE,6.9,-,N/A,,Overcast,160,2012-10-06 15:30:00
2:00 AM,73.4,64.4,73,29.98,6.2,South,8.1,-,N/A,,Overcast,180,2012-10-06 16:00:00
2:30 AM,71.6,66.2,83,29.98,6.2,SE,8.1,-,N/A,,Overcast,130,2012-10-06 16:30:00
3:00 AM,72,66,76,29.97,,SE,8.1,,,,Overcast,140,2012-10-06 17:00:00
3:00 AM,71.6,66.2,83,29.98,6.2,SE,8.1,-,N/A,,Overcast,140,2012-10-06 17:00:00
3:30 AM,71.6,66.2,83,29.95,6.2,SE,6.9,-,N/A,,Mostly Cloudy,130,2012-10-06 17:30:00
4:00 AM,70,66,83,29.98,,SE,5.8,,,,,140,2012-10-06 18:00:00
4:00 AM,69.8,66.2,88,29.95,6.2,SE,5.8,-,N/A,,Partly Cloudy,140,2012-10-06 18:00:00
4:30 AM,69.8,66.2,88,29.98,6.2,Calm,Calm,-,N/A,,Partly Cloudy,0,2012-10-06 18:30:00
5:00 AM,68.0,66.2,94,29.98,6.2,Calm,Calm,-,N/A,,Partly Cloudy,0,2012-10-06 19:00:00
5:30 AM,69.8,66.2,88,29.98,6.2,SE,5.8,-,N/A,,Partly Cloudy,140,2012-10-06 19:30:00
6:00 AM,69,66,86,29.99,16,SE,6.9,,,,Partly Cloudy,140,2012-10-06 20:00:00
6:00 AM,69.8,66.2,88,29.98,6.2,SE,6.9,-,N/A,,Partly Cloudy,140,2012-10-06 20:00:00
6:30 AM,69.8,66.2,88,29.98,6.2,SSE,3.5,-,N/A,,Mostly Cloudy,150,2012-10-06 20:30:00
7:00 AM,71,67,82,30.02,,WSW,2.3,,,,,240,2012-10-06 21:00:00
7:00 AM,69.8,66.2,88,30.01,6.2,WSW,2.3,-,N/A,,Mostly Cloudy,240,2012-10-06 21:00:00
7:30 AM,71.6,66.2,83,30.01,6.2,SE,8.1,-,N/A,,Mostly Cloudy,140,2012-10-06 21:30:00
8:00 AM,73.4,66.2,78,30.01,6.2,SE,9.2,-,N/A,,Mostly Cloudy,130,2012-10-06 22:00:00
8:30 AM,75.2,66.2,73,30.01,6.2,SSE,10.4,-,N/A,,Mostly Cloudy,150,2012-10-06 22:30:00
9:00 AM,78,63,50,30.03,19,SSE,10.4,,,,Partly Cloudy,160,2012-10-06 23:00:00
9:00 AM,78.8,62.6,57,30.01,6.2,SSE,10.4,-,N/A,,Scattered Clouds,160,2012-10-06 23:00:00
9:30 AM,80.6,62.6,54,30.01,6.2,South,9.2,-,N/A,,Partly Cloudy,170,2012-10-06 23:30:00
10:00 AM,82,64,44,30.02,,ESE,11.5,,,,,120,2012-10-07 00:00:00
10:00 AM,82.4,64.4,54,30.01,6.2,ESE,11.5,-,N/A,,Scattered Clouds,120,2012-10-07 00:00:00
10:30 AM,80.6,62.6,54,30.01,6.2,SE,9.2,-,N/A,,Scattered Clouds,140,2012-10-07 00:30:00
11:00 AM,82.4,62.6,51,29.98,6.2,ESE,10.4,-,N/A,,Partly Cloudy,110,2012-10-07 01:00:00
11:30 AM,82.4,62.6,51,29.98,6.2,East,9.2,-,N/A,,Partly Cloudy,90,2012-10-07 01:30:00
12:00 PM,82,62,41,29.96,19,East,10.4,,,,Partly Cloudy,90,2012-10-07 02:00:00
12:00 PM,82.4,62.6,51,29.95,6.2,East,10.4,-,N/A,,Partly Cloudy,90,2012-10-07 02:00:00
12:30 PM,84.2,60.8,45,29.95,6.2,East,15.0,-,N/A,,Partly Cloudy,80,2012-10-07 02:30:00
1:00 PM,83,63,40,29.94,,ENE,15.0,,,,,70,2012-10-07 03:00:00
1:00 PM,82.4,62.6,51,29.92,6.2,ENE,15.0,-,N/A,,Partly Cloudy,70,2012-10-07 03:00:00
1:30 PM,82.4,62.6,51,29.92,6.2,East,15.0,-,N/A,,Partly Cloudy,80,2012-10-07 03:30:00
2:00 PM,84.2,62.6,48,29.92,6.2,ENE,13.8,-,N/A,,Partly Cloudy,60,2012-10-07 04:00:00
2:30 PM,82.4,64.4,54,29.89,6.2,NE,13.8,-,N/A,,Partly Cloudy,50,2012-10-07 04:30:00
3:00 PM,82,63,43,29.90,19,East,15.0,,,,Partly Cloudy,90,2012-10-07 05:00:00
3:00 PM,82.4,62.6,51,29.89,6.2,East,15.0,-,N/A,,Partly Cloudy,90,2012-10-07 05:00:00
3:30 PM,82.4,62.6,51,29.89,6.2,East,13.8,-,N/A,,Partly Cloudy,90,2012-10-07 05:30:00
4:00 PM,82,62,41,29.88,,SE,10.4,,,,,130,2012-10-07 06:00:00
4:00 PM,82.4,62.6,51,29.86,6.2,SE,10.4,-,N/A,,Partly Cloudy,130,2012-10-07 06:00:00
4:30 PM,82.4,62.6,51,29.86,6.2,SE,10.4,-,N/A,,Partly Cloudy,130,2012-10-07 06:30:00
5:00 PM,80.6,62.6,54,29.86,-9999.0,SE,11.5,-,N/A,,Clear,130,2012-10-07 07:00:00
5:30 PM,78.8,62.6,57,29.86,-9999.0,SE,10.4,-,N/A,,Clear,130,2012-10-07 07:30:00
6:00 PM,78,63,51,29.88,,ESE,6.9,,,,,110,2012-10-07 08:00:00
6:00 PM,77.0,62.6,61,29.89,-9999.0,ESE,6.9,-,N/A,,Clear,110,2012-10-07 08:00:00
6:30 PM,75.2,62.6,65,29.89,-9999.0,South,3.5,-,N/A,,Clear,190,2012-10-07 08:30:00
7:00 PM,74,63,59,29.91,,South,4.6,,,,,170,2012-10-07 09:00:00
7:00 PM,73.4,62.6,69,29.89,-9999.0,South,4.6,-,N/A,,Clear,170,2012-10-07 09:00:00
7:30 PM,73.4,62.6,69,29.89,-9999.0,South,2.3,-,N/A,,Clear,180,2012-10-07 09:30:00
8:00 PM,73.4,64.4,73,29.89,-9999.0,Calm,Calm,-,N/A,,Clear,0,2012-10-07 10:00:00
8:30 PM,73.4,64.4,73,29.92,-9999.0,Calm,Calm,-,N/A,,Clear,0,2012-10-07 10:30:00
9:00 PM,71,64,73,29.92,,SW,1.2,,,,,230,2012-10-07 11:00:00
9:00 PM,71.6,64.4,78,29.92,-9999.0,SW,1.2,-,N/A,,Clear,230,2012-10-07 11:00:00
9:30 PM,71.6,66.2,83,29.92,-9999.0,Calm,Calm,-,N/A,,Clear,0,2012-10-07 11:30:00
10:00 PM,69,65,84,29.95,,Calm,Calm,,,,,,2012-10-07 12:00:00
10:00 PM,69.8,64.4,83,29.92,-9999.0,Calm,Calm,-,N/A,,Clear,0,2012-10-07 12:00:00
10:30 PM,69.8,64.4,83,29.92,-9999.0,WNW,3.5,-,N/A,,Clear,290,2012-10-07 12:30:00
11:00 PM,68.0,64.4,88,29.92,-9999.0,WNW,2.3,-,N/A,,Clear,290,2012-10-07 13:00:00
11:30 PM,66.2,64.4,94,29.89,-9999.0,West,4.6,-,N/A,,Clear,280,2012-10-07 13:30:00